Year,Month,Day,Hour,Minute,Value (Times are PST for temperature in C)
2022,11,30,00,00,4.60
2022,11,30,00,01,4.50
2022,11,30,00,02,4.50
2022,11,30,00,03,4.50
2022,11,30,00,04,4.50
2022,11,30,00,05,4.50
2022,11,30,00,06,4.50
2022,11,30,00,07,4.50
2022,11,30,00,08,4.60
2022,11,30,00,09,4.50
2022,11,30,00,10,4.60
2022,11,30,00,11,4.60
2022,11,30,00,12,4.60
2022,11,30,00,13,4.60
2022,11,30,00,14,4.60
2022,11,30,00,15,4.60
2022,11,30,00,16,4.60
2022,11,30,00,17,4.60
2022,11,30,00,18,4.60
2022,11,30,00,19,4.60
2022,11,30,00,20,4.50
2022,11,30,00,21,4.50
2022,11,30,00,22,4.50
2022,11,30,00,23,4.50
2022,11,30,00,24,4.50
2022,11,30,00,25,4.60
2022,11,30,00,26,4.60
2022,11,30,00,27,4.60
2022,11,30,00,28,4.60
2022,11,30,00,29,4.50
2022,11,30,00,30,4.50
2022,11,30,00,31,4.50
2022,11,30,00,32,4.50
2022,11,30,00,33,4.50
2022,11,30,00,34,4.50
2022,11,30,00,35,4.50
2022,11,30,00,36,4.50
2022,11,30,00,37,4.50
2022,11,30,00,38,4.50
2022,11,30,00,39,4.50
2022,11,30,00,40,4.50
2022,11,30,00,41,4.50
2022,11,30,00,42,4.50
2022,11,30,00,43,4.50
2022,11,30,00,44,4.50
2022,11,30,00,45,4.50
2022,11,30,00,46,4.50
2022,11,30,07,56,4.20
2022,11,30,07,57,4.20
2022,11,30,07,58,4.20
2022,11,30,07,59,4.20
2022,11,30,08,00,4.20
2022,11,30,08,01,4.20
2022,11,30,08,02,4.20
2022,11,30,08,03,4.20
2022,11,30,08,04,4.20
2022,11,30,08,05,4.20
2022,11,30,08,06,4.20
2022,11,30,08,07,4.20
2022,11,30,08,08,4.20
2022,11,30,08,09,4.20
2022,11,30,08,10,4.20
2022,11,30,08,11,4.20
2022,11,30,08,12,4.20
2022,11,30,08,13,4.20
2022,11,30,08,14,4.20
2022,11,30,08,15,4.20
2022,11,30,08,16,4.20
2022,11,30,08,17,4.20
2022,11,30,08,18,4.20
2022,11,30,08,19,4.20
2022,11,30,08,20,4.20
2022,11,30,08,21,4.20
2022,11,30,08,22,4.20
2022,11,30,08,23,4.20
2022,11,30,08,24,4.20
2022,11,30,08,25,4.20
2022,11,30,08,26,4.20
2022,11,30,08,27,4.20
2022,11,30,08,28,4.20
2022,11,30,08,29,4.20
2022,11,30,08,30,4.20
2022,11,30,08,31,4.20
2022,11,30,08,32,4.20
2022,11,30,08,33,4.20
2022,11,30,08,34,4.20
2022,11,30,08,35,4.20
2022,11,30,08,36,4.20
2022,11,30,08,37,4.20
2022,11,30,08,38,4.20
2022,11,30,08,39,4.10
2022,11,30,08,40,4.10
2022,11,30,08,41,4.10
2022,11,30,08,42,4.10
2022,11,30,08,43,4.10
2022,11,30,08,44,4.10
2022,11,30,08,45,4.10
2022,11,30,08,46,4.10
2022,11,30,08,47,4.10
2022,11,30,08,48,4.10
2022,11,30,08,49,4.10
2022,11,30,08,50,4.10
2022,11,30,08,51,4.10
2022,11,30,08,52,4.10
2022,11,30,08,53,4.10
2022,11,30,08,54,4.10
2022,11,30,08,55,4.20
2022,11,30,08,56,4.20
2022,11,30,08,57,4.20
2022,11,30,08,58,4.20
2022,11,30,08,59,4.20
2022,11,30,09,00,4.20
2022,11,30,09,01,4.30
2022,11,30,09,02,4.30
2022,11,30,09,03,4.30
2022,11,30,09,04,4.30
2022,11,30,09,05,4.40
2022,11,30,09,06,4.40
2022,11,30,09,07,4.40
2022,11,30,09,08,4.40
2022,11,30,09,09,4.40
2022,11,30,09,10,4.50
2022,11,30,09,11,4.50
2022,11,30,09,12,4.50
2022,11,30,09,13,4.60
2022,11,30,09,14,4.60
2022,11,30,09,15,4.60
2022,11,30,09,16,4.60
2022,11,30,09,17,4.60
2022,11,30,09,18,4.60
2022,11,30,09,19,4.60
2022,11,30,09,20,4.60
2022,11,30,09,21,4.60
2022,11,30,09,22,4.70
2022,11,30,09,23,4.70
2022,11,30,09,24,4.70
2022,11,30,09,25,4.70
2022,11,30,09,26,4.70
2022,11,30,09,27,4.70
2022,11,30,09,28,4.70
2022,11,30,09,29,4.70
2022,11,30,09,30,4.70
2022,11,30,09,31,4.70
2022,11,30,09,32,4.70
2022,11,30,09,33,4.70
2022,11,30,09,34,4.70
2022,11,30,09,35,4.70
2022,11,30,09,36,4.70
2022,11,30,09,37,4.70
2022,11,30,09,38,4.70
2022,11,30,09,39,4.70
2022,11,30,09,40,4.70
2022,11,30,09,41,4.70
2022,11,30,09,42,4.70
2022,11,30,09,43,4.70
2022,11,30,09,44,4.70
2022,11,30,09,45,4.70
2022,11,30,09,46,4.70
2022,11,30,09,47,4.70
2022,11,30,09,48,4.70
2022,11,30,09,49,4.70
2022,11,30,09,50,4.70
2022,11,30,09,51,4.70
2022,11,30,09,52,4.70
2022,11,30,09,53,4.70
2022,11,30,09,54,4.70
2022,11,30,09,55,4.70
2022,11,30,09,56,4.70
2022,11,30,09,57,4.70
2022,11,30,09,58,4.70
2022,11,30,09,59,4.70
2022,11,30,10,00,4.70
2022,11,30,10,01,4.70
2022,11,30,10,02,4.70
2022,11,30,10,03,4.70
2022,11,30,10,04,4.70
2022,11,30,10,05,4.80
2022,11,30,10,06,4.80
2022,11,30,10,07,4.80
2022,11,30,10,08,4.80
2022,11,30,10,09,4.80
2022,11,30,10,10,4.80
2022,11,30,10,11,4.80
2022,11,30,10,12,4.80
2022,11,30,10,13,4.80
2022,11,30,10,14,4.80
2022,11,30,10,15,4.80
2022,11,30,10,16,4.80
2022,11,30,10,17,4.80
2022,11,30,10,18,4.80
2022,11,30,10,19,4.80
2022,11,30,10,20,4.80
2022,11,30,10,21,4.80
2022,11,30,10,22,4.80
2022,11,30,10,23,4.80
2022,11,30,10,24,4.80
2022,11,30,10,25,4.80
2022,11,30,10,26,4.80
2022,11,30,10,27,4.90
2022,11,30,10,28,4.90
2022,11,30,10,29,4.90
2022,11,30,10,30,4.90
2022,11,30,10,31,5.00
2022,11,30,10,32,5.00
2022,11,30,10,33,5.00
2022,11,30,10,34,5.00
2022,11,30,10,35,5.00
2022,11,30,10,36,5.00
2022,11,30,10,37,5.00
2022,11,30,10,38,5.00
2022,11,30,10,39,5.10
2022,11,30,10,40,5.10
2022,11,30,10,41,5.10
2022,11,30,10,42,5.10
2022,11,30,10,43,5.10
2022,11,30,10,44,5.10
2022,11,30,10,45,5.20
2022,11,30,10,46,5.20
2022,11,30,10,47,5.20
2022,11,30,10,48,5.20
2022,11,30,10,49,5.20
2022,11,30,10,50,5.20
2022,11,30,10,51,5.20
2022,11,30,10,52,5.20
2022,11,30,10,53,5.20
2022,11,30,10,54,5.20
2022,11,30,10,55,5.20
2022,11,30,10,56,5.20
2022,11,30,10,57,5.20
2022,11,30,10,58,5.20
2022,11,30,10,59,5.20
2022,11,30,11,00,5.20
2022,11,30,11,01,5.20
2022,11,30,11,02,5.20
2022,11,30,11,03,5.20
2022,11,30,11,04,5.20
2022,11,30,11,05,5.20
2022,11,30,11,06,5.20
2022,11,30,11,07,5.20
2022,11,30,11,08,5.20
2022,11,30,11,09,5.20
2022,11,30,11,10,5.20
2022,11,30,11,11,5.20
2022,11,30,11,12,5.20
2022,11,30,11,13,5.20
2022,11,30,11,14,5.20
2022,11,30,11,15,5.20
2022,11,30,11,16,5.10
2022,11,30,11,17,5.10
2022,11,30,11,18,5.20
2022,11,30,11,19,5.20
2022,11,30,11,20,5.10
2022,11,30,11,21,5.10
2022,11,30,11,22,5.10
2022,11,30,11,23,5.20
2022,11,30,11,24,5.20
2022,11,30,11,25,5.20
2022,11,30,11,26,5.20
2022,11,30,11,27,5.20
2022,11,30,11,28,5.20
2022,11,30,11,29,5.20
2022,11,30,11,30,5.20
2022,11,30,11,31,5.20
2022,11,30,11,32,5.20
2022,11,30,11,33,5.20
2022,11,30,11,34,5.20
2022,11,30,11,35,5.20
2022,11,30,11,36,5.20
2022,11,30,11,37,5.20
2022,11,30,11,38,5.10
2022,11,30,11,39,5.10
2022,11,30,11,40,5.10
2022,11,30,11,41,5.10
2022,11,30,11,42,5.10
2022,11,30,11,43,5.20
2022,11,30,11,44,5.20
2022,11,30,11,45,5.20
2022,11,30,11,46,5.20
2022,11,30,11,47,5.20
2022,11,30,11,48,5.20
2022,11,30,11,49,5.20
2022,11,30,11,50,5.20
2022,11,30,11,51,5.20
2022,11,30,11,52,5.30
2022,11,30,11,53,5.30
2022,11,30,11,54,5.30
2022,11,30,11,55,5.30
2022,11,30,11,56,5.30
2022,11,30,11,57,5.30
2022,11,30,11,58,5.30
2022,11,30,11,59,5.30
2022,11,30,12,00,5.30
2022,11,30,12,01,5.30
2022,11,30,12,02,5.30
2022,11,30,12,03,5.30
2022,11,30,12,04,5.30
2022,11,30,12,05,5.30
2022,11,30,12,06,5.30
2022,11,30,12,07,5.30
2022,11,30,12,08,5.30
2022,11,30,12,09,5.30
2022,11,30,12,10,5.30
2022,11,30,12,11,5.30
2022,11,30,12,12,5.30
2022,11,30,12,13,5.30
2022,11,30,12,14,5.30
2022,11,30,12,15,5.30
2022,11,30,12,16,5.30
2022,11,30,12,17,5.30
2022,11,30,12,18,5.30
2022,11,30,12,19,5.30
2022,11,30,12,20,5.30
2022,11,30,12,21,5.30
2022,11,30,12,22,5.30
2022,11,30,12,23,5.30
2022,11,30,12,24,5.30
2022,11,30,12,25,5.30
2022,11,30,12,26,5.30
2022,11,30,12,27,5.30
2022,11,30,12,28,5.40
2022,11,30,12,29,5.40
2022,11,30,12,30,5.40
2022,11,30,12,31,5.40
2022,11,30,12,32,5.40
2022,11,30,12,33,5.40
2022,11,30,12,34,5.40
2022,11,30,12,35,5.40
2022,11,30,12,36,5.40
2022,11,30,12,37,5.40
2022,11,30,12,38,5.40
2022,11,30,12,39,5.30
2022,11,30,12,40,5.30
2022,11,30,12,41,5.30
2022,11,30,12,42,5.30
2022,11,30,12,43,5.30
2022,11,30,12,44,5.30
2022,11,30,12,45,5.30
2022,11,30,12,46,5.30
2022,11,30,12,47,5.30
2022,11,30,12,48,5.30
2022,11,30,12,49,5.30
2022,11,30,12,50,5.30
2022,11,30,12,51,5.30
2022,11,30,12,52,5.30
2022,11,30,12,53,5.30
2022,11,30,12,54,5.30
2022,11,30,12,55,5.30
2022,11,30,12,56,5.30
2022,11,30,12,57,5.30
2022,11,30,12,58,5.30
2022,11,30,12,59,5.30
2022,11,30,13,00,5.30
2022,11,30,13,01,5.30
2022,11,30,13,02,5.30
2022,11,30,13,03,5.30
2022,11,30,13,04,5.30
2022,11,30,13,05,5.30
2022,11,30,13,06,5.30
2022,11,30,13,07,5.30
2022,11,30,13,08,5.30
2022,11,30,13,09,5.30
2022,11,30,13,10,5.30
2022,11,30,13,11,5.30
2022,11,30,13,12,5.30
2022,11,30,13,13,5.30
2022,11,30,13,14,5.30
2022,11,30,13,15,5.30
2022,11,30,13,16,5.30
2022,11,30,13,17,5.30
2022,11,30,13,18,5.30
2022,11,30,13,19,5.30
2022,11,30,13,20,5.30
2022,11,30,13,21,5.30
2022,11,30,13,22,5.30
2022,11,30,13,23,5.30
2022,11,30,13,24,5.30
2022,11,30,13,25,5.30
2022,11,30,13,26,5.30
2022,11,30,13,27,5.30
2022,11,30,13,28,5.30
2022,11,30,13,29,5.20
2022,11,30,13,30,5.20
2022,11,30,13,31,5.20
2022,11,30,13,32,5.20
2022,11,30,13,33,5.20
2022,11,30,13,34,5.20
2022,11,30,13,35,5.20
2022,11,30,13,36,5.20
2022,11,30,13,37,5.20
2022,11,30,13,38,5.20
2022,11,30,13,39,5.20
2022,11,30,13,40,5.20
2022,11,30,13,41,5.20
2022,11,30,13,42,5.20
2022,11,30,13,43,5.20
2022,11,30,13,44,5.20
2022,11,30,13,45,5.20
2022,11,30,13,46,5.20
2022,11,30,13,47,5.20
2022,11,30,13,48,5.20
2022,11,30,13,49,5.20
2022,11,30,13,50,5.20
2022,11,30,13,51,5.20
2022,11,30,13,52,5.20
2022,11,30,13,53,5.20
2022,11,30,13,54,5.20
2022,11,30,13,55,5.20
2022,11,30,13,56,5.20
2022,11,30,13,57,5.20
2022,11,30,13,58,5.20
2022,11,30,13,59,5.20
2022,11,30,14,00,5.20
2022,11,30,14,01,5.20
2022,11,30,14,02,5.20
2022,11,30,14,03,5.20
2022,11,30,14,04,5.20
2022,11,30,14,05,5.20
2022,11,30,14,06,5.20
2022,11,30,14,07,5.20
2022,11,30,14,08,5.20
2022,11,30,14,09,5.20
2022,11,30,14,10,5.20
2022,11,30,14,11,5.20
2022,11,30,14,12,5.20
2022,11,30,14,13,5.20
2022,11,30,14,14,5.20
2022,11,30,14,15,5.20
2022,11,30,14,16,5.20
2022,11,30,14,17,5.20
2022,11,30,14,18,5.20
2022,11,30,14,19,5.30
2022,11,30,14,20,5.30
2022,11,30,14,21,5.30
2022,11,30,14,22,5.30
2022,11,30,14,23,5.30
2022,11,30,14,24,5.30
2022,11,30,14,25,5.30
2022,11,30,14,26,5.30
2022,11,30,14,27,5.40
2022,11,30,14,28,5.40
2022,11,30,14,29,5.40
2022,11,30,14,30,5.40
2022,11,30,14,31,5.40
2022,11,30,14,32,5.40
2022,11,30,14,33,5.40
2022,11,30,14,34,5.40
2022,11,30,14,35,5.40
2022,11,30,14,36,5.40
2022,11,30,14,37,5.40
2022,11,30,14,38,5.40
2022,11,30,14,39,5.40
2022,11,30,14,40,5.40
2022,11,30,14,41,5.40
2022,11,30,14,42,5.40
2022,11,30,14,43,5.40
2022,11,30,14,44,5.40
2022,11,30,14,45,5.40
2022,11,30,14,46,5.40
2022,11,30,14,47,5.40
2022,11,30,14,48,5.40
2022,11,30,14,49,5.40
2022,11,30,14,50,5.40
2022,11,30,14,51,5.40
2022,11,30,14,52,5.30
2022,11,30,14,53,5.30
2022,11,30,14,54,5.30
2022,11,30,14,55,5.30
2022,11,30,14,56,5.30
2022,11,30,14,57,5.30
2022,11,30,14,58,5.30
2022,11,30,14,59,5.30
2022,11,30,15,00,5.30
2022,11,30,15,01,5.30
2022,11,30,15,02,5.30
2022,11,30,15,03,5.30
2022,11,30,15,04,5.30
2022,11,30,15,05,5.30
2022,11,30,15,06,5.30
2022,11,30,15,07,5.30
2022,11,30,15,08,5.30
2022,11,30,15,09,5.30
2022,11,30,15,10,5.30
2022,11,30,15,11,5.30
2022,11,30,15,12,5.30
2022,11,30,15,13,5.30
2022,11,30,15,14,5.30
2022,11,30,15,15,5.30
2022,11,30,15,16,5.30
2022,11,30,15,17,5.30
2022,11,30,15,18,5.30
2022,11,30,15,19,5.30
2022,11,30,15,20,5.30
2022,11,30,15,21,5.30
2022,11,30,15,22,5.30
2022,11,30,15,23,5.30
2022,11,30,15,24,5.30
2022,11,30,15,25,5.30
2022,11,30,15,26,5.30
2022,11,30,15,27,5.30
2022,11,30,15,28,5.30
2022,11,30,15,29,5.30
2022,11,30,15,30,5.30
2022,11,30,15,31,5.30
2022,11,30,15,32,5.40
2022,11,30,15,33,5.40
2022,11,30,15,34,5.40
2022,11,30,15,35,5.40
2022,11,30,15,36,5.40
2022,11,30,15,37,5.40
2022,11,30,15,38,5.40
2022,11,30,15,39,5.40
2022,11,30,15,40,5.40
2022,11,30,15,41,5.40
2022,11,30,15,42,5.40
2022,11,30,15,43,5.40
2022,11,30,15,44,5.40
2022,11,30,15,45,5.40
2022,11,30,15,46,5.40
2022,11,30,15,47,5.40
2022,11,30,15,48,5.40
2022,11,30,15,49,5.40
2022,11,30,15,50,5.40
2022,11,30,15,51,5.40
2022,11,30,15,52,5.40
2022,11,30,15,53,5.40
2022,11,30,15,54,5.40
2022,11,30,15,55,5.40
2022,11,30,15,56,5.40
2022,11,30,15,57,5.40
2022,11,30,15,58,5.40
2022,11,30,15,59,5.30
2022,11,30,16,00,5.40
2022,11,30,16,01,5.30
2022,11,30,16,02,5.30
2022,11,30,16,03,5.30
2022,11,30,16,04,5.30
2022,11,30,16,05,5.30
2022,11,30,16,06,5.30
2022,11,30,16,07,5.30
2022,11,30,16,08,5.30
2022,11,30,16,09,5.30
2022,11,30,16,10,5.30
2022,11,30,16,11,5.30
2022,11,30,16,12,5.30
2022,11,30,16,13,5.30
2022,11,30,16,14,5.30
2022,11,30,16,15,5.30
2022,11,30,16,16,5.30
2022,11,30,16,17,5.30
2022,11,30,16,18,5.30
2022,11,30,16,19,5.30
2022,11,30,16,20,5.30
2022,11,30,16,21,5.20
2022,11,30,16,22,5.20
2022,11,30,16,23,5.20
2022,11,30,16,24,5.20
2022,11,30,16,25,5.20
2022,11,30,16,26,5.20
2022,11,30,16,27,5.20
2022,11,30,16,28,5.20
2022,11,30,16,29,5.20
2022,11,30,16,30,5.20
2022,11,30,16,31,5.10
2022,11,30,16,32,5.10
2022,11,30,16,33,5.10
2022,11,30,16,34,5.10
2022,11,30,16,35,5.10
2022,11,30,16,36,5.10
2022,11,30,16,37,5.00
2022,11,30,16,38,5.00
2022,11,30,16,39,5.00
2022,11,30,16,40,4.90
2022,11,30,16,41,4.90
2022,11,30,16,42,4.80
2022,11,30,16,43,4.80
2022,11,30,16,44,4.70
2022,11,30,16,45,4.70
2022,11,30,16,46,4.70
2022,11,30,16,47,4.70
2022,11,30,16,48,4.70
2022,11,30,16,49,4.70
2022,11,30,16,50,4.60
2022,11,30,16,51,4.60
2022,11,30,16,52,4.60
2022,11,30,16,53,4.60
2022,11,30,16,54,4.60
2022,11,30,16,55,4.50
2022,11,30,16,56,4.50
2022,11,30,16,57,4.40
2022,11,30,16,58,4.30
2022,11,30,16,59,4.30
2022,11,30,17,00,4.30
2022,11,30,17,01,4.20
2022,11,30,17,02,4.20
2022,11,30,17,03,4.20
2022,11,30,17,04,4.10
2022,11,30,17,05,4.10
2022,11,30,17,06,4.10
2022,11,30,17,07,4.00
2022,11,30,17,08,4.00
2022,11,30,17,09,3.90
2022,11,30,17,10,3.90
2022,11,30,17,11,3.80
2022,11,30,17,12,3.80
2022,11,30,17,13,3.80
2022,11,30,17,14,3.70
2022,11,30,17,15,3.70
2022,11,30,17,16,3.70
2022,11,30,17,17,3.60
2022,11,30,17,18,3.60
2022,11,30,17,19,3.60
2022,11,30,17,20,3.60
2022,11,30,17,21,3.60
2022,11,30,17,22,3.60
2022,11,30,17,23,3.60
2022,11,30,17,24,3.60
2022,11,30,17,25,3.50
2022,11,30,17,26,3.50
2022,11,30,17,27,3.50
2022,11,30,17,28,3.50
2022,11,30,17,29,3.50
2022,11,30,17,30,3.50
2022,11,30,17,31,3.50
2022,11,30,17,32,3.50
2022,11,30,17,33,3.40
2022,11,30,17,34,3.40
2022,11,30,17,35,3.40
2022,11,30,17,36,3.40
2022,11,30,17,37,3.30
2022,11,30,17,38,3.30
2022,11,30,17,39,3.30
2022,11,30,17,40,3.30
2022,11,30,17,41,3.30
2022,11,30,17,42,3.30
2022,11,30,17,43,3.30
2022,11,30,17,44,3.20
2022,11,30,17,45,3.20
2022,11,30,17,46,3.20
2022,11,30,17,47,3.20
2022,11,30,17,48,3.20
2022,11,30,17,49,3.20
2022,11,30,17,50,3.20
2022,11,30,17,51,3.10
2022,11,30,17,52,3.10
2022,11,30,17,53,3.10
2022,11,30,17,54,3.10
2022,11,30,17,55,3.10
2022,11,30,17,56,3.10
2022,11,30,17,57,3.10
2022,11,30,17,58,3.10
2022,11,30,17,59,3.10
2022,11,30,18,00,3.00
2022,11,30,18,01,3.00
2022,11,30,18,02,3.00
2022,11,30,18,03,3.00
2022,11,30,18,04,2.90
2022,11,30,18,05,2.90
2022,11,30,18,06,2.90
2022,11,30,18,07,2.90
2022,11,30,18,08,2.80
2022,11,30,18,09,2.80
2022,11,30,18,10,2.80
2022,11,30,18,11,2.80
2022,11,30,18,12,2.80
2022,11,30,18,13,2.80
2022,11,30,18,14,2.80
2022,11,30,18,15,2.80
2022,11,30,18,16,2.70
2022,11,30,18,17,2.70
2022,11,30,18,18,2.70
2022,11,30,18,19,2.70
2022,11,30,18,20,2.70
2022,11,30,18,21,2.70
2022,11,30,18,22,2.70
2022,11,30,18,23,2.60
2022,11,30,18,24,2.60
2022,11,30,18,25,2.60
2022,11,30,18,26,2.60
2022,11,30,18,27,2.60
2022,11,30,18,28,2.60
2022,11,30,18,29,2.60
2022,11,30,18,30,2.50
2022,11,30,18,31,2.50
2022,11,30,18,32,2.50
2022,11,30,18,33,2.40
2022,11,30,18,34,2.40
2022,11,30,18,35,2.40
2022,11,30,18,36,2.40
2022,11,30,18,37,2.40
2022,11,30,18,38,2.40
2022,11,30,18,39,2.40
2022,11,30,18,40,2.40
2022,11,30,18,41,2.40
2022,11,30,18,42,2.30
2022,11,30,18,43,2.30
2022,11,30,18,44,2.30
2022,11,30,18,45,2.30
2022,11,30,18,46,2.30
2022,11,30,18,47,2.30
2022,11,30,18,48,2.30
2022,11,30,18,49,2.30
2022,11,30,18,50,2.30
2022,11,30,18,51,2.30
2022,11,30,18,52,2.30
2022,11,30,18,53,2.30
2022,11,30,18,54,2.20
2022,11,30,18,55,2.20
2022,11,30,18,56,2.20
2022,11,30,18,57,2.20
2022,11,30,18,58,2.20
2022,11,30,18,59,2.10
2022,11,30,19,00,2.10
2022,11,30,19,01,2.10
2022,11,30,19,02,2.00
2022,11,30,19,03,2.00
2022,11,30,19,04,2.00
2022,11,30,19,05,1.90
2022,11,30,19,06,1.90
2022,11,30,19,07,1.90
2022,11,30,19,08,1.90
2022,11,30,19,09,1.80
2022,11,30,19,10,1.80
2022,11,30,19,11,1.80
2022,11,30,19,12,1.80
2022,11,30,19,13,1.80
2022,11,30,19,14,1.80
2022,11,30,19,15,1.70
2022,11,30,19,16,1.70
2022,11,30,19,17,1.70
2022,11,30,19,18,1.70
2022,11,30,19,19,1.70
2022,11,30,19,20,1.60
2022,11,30,19,21,1.60
2022,11,30,19,22,1.60
2022,11,30,19,23,1.60
2022,11,30,19,24,1.60
2022,11,30,19,25,1.50
2022,11,30,19,26,1.50
2022,11,30,19,27,1.50
2022,11,30,19,28,1.50
2022,11,30,19,29,1.40
2022,11,30,19,30,1.40
2022,11,30,19,31,1.40
2022,11,30,19,32,1.40
2022,11,30,19,33,1.40
2022,11,30,19,34,1.40
2022,11,30,19,35,1.30
2022,11,30,19,36,1.30
2022,11,30,19,37,1.30
2022,11,30,19,38,1.30
2022,11,30,19,39,1.30
2022,11,30,19,40,1.30
2022,11,30,19,41,1.30
2022,11,30,19,42,1.30
2022,11,30,19,43,1.30
2022,11,30,19,44,1.30
2022,11,30,19,45,1.30
2022,11,30,19,46,1.30
2022,11,30,19,47,1.30
2022,11,30,19,48,1.30
2022,11,30,19,49,1.20
2022,11,30,19,50,1.20
2022,11,30,19,51,1.20
2022,11,30,19,52,1.20
2022,11,30,19,53,1.20
2022,11,30,19,54,1.20
2022,11,30,19,55,1.20
2022,11,30,19,56,1.20
2022,11,30,19,57,1.20
2022,11,30,19,58,1.20
2022,11,30,19,59,1.20
2022,11,30,20,00,1.20
2022,11,30,20,01,1.20
2022,11,30,20,02,1.20
2022,11,30,20,03,1.20
2022,11,30,20,04,1.20
2022,11,30,20,05,1.20
2022,11,30,20,06,1.20
2022,11,30,20,07,1.20
2022,11,30,20,08,1.20
2022,11,30,20,09,1.20
2022,11,30,20,10,1.20
2022,11,30,20,11,1.20
2022,11,30,20,12,1.20
2022,11,30,20,13,1.20
2022,11,30,20,14,1.20
2022,11,30,20,15,1.20
2022,11,30,20,16,1.20
2022,11,30,20,17,1.20
2022,11,30,20,18,1.20
2022,11,30,20,19,1.20
2022,11,30,20,20,1.20
2022,11,30,20,21,1.20
2022,11,30,20,22,1.20
2022,11,30,20,23,1.20
2022,11,30,20,24,1.20
2022,11,30,20,25,1.20
2022,11,30,20,26,1.20
2022,11,30,20,27,1.20
2022,11,30,20,28,1.20
2022,11,30,20,29,1.10
2022,11,30,20,30,1.10
2022,11,30,20,31,1.10
2022,11,30,20,32,1.10
2022,11,30,20,33,1.10
2022,11,30,20,34,1.10
2022,11,30,20,35,1.10
2022,11,30,20,36,1.10
2022,11,30,20,37,1.10
2022,11,30,20,38,1.10
2022,11,30,20,39,1.10
2022,11,30,20,40,1.10
2022,11,30,20,41,1.10
2022,11,30,20,42,1.10
2022,11,30,20,43,1.10
2022,11,30,20,44,1.10
2022,11,30,20,45,1.10
2022,11,30,20,46,1.10
2022,11,30,20,47,1.00
2022,11,30,20,48,1.00
2022,11,30,20,49,1.00
2022,11,30,20,50,1.00
2022,11,30,20,51,1.00
2022,11,30,20,52,1.00
2022,11,30,20,53,1.00
2022,11,30,20,54,0.90
2022,11,30,20,55,0.90
2022,11,30,20,56,0.90
2022,11,30,20,57,0.90
2022,11,30,20,58,0.90
2022,11,30,20,59,0.90
2022,11,30,21,00,0.90
2022,11,30,21,01,0.90
2022,11,30,21,02,0.90
2022,11,30,21,03,0.90
2022,11,30,21,04,0.90
2022,11,30,21,05,0.90
2022,11,30,21,06,0.90
2022,11,30,21,07,0.90
2022,11,30,21,08,0.90
2022,11,30,21,09,0.90
2022,11,30,21,10,0.90
2022,11,30,21,11,0.90
2022,11,30,21,12,0.90
2022,11,30,21,13,0.90
2022,11,30,21,14,0.90
2022,11,30,21,15,0.90
2022,11,30,21,16,0.90
2022,11,30,21,17,0.90
2022,11,30,21,18,0.90
2022,11,30,21,19,1.00
2022,11,30,21,20,1.00
2022,11,30,21,21,1.10
2022,11,30,21,22,1.10
2022,11,30,21,23,1.10
2022,11,30,21,24,1.10
2022,11,30,21,25,1.10
2022,11,30,21,26,1.10
2022,11,30,21,27,1.10
2022,11,30,21,28,1.10
2022,11,30,21,29,1.10
2022,11,30,21,30,1.10
2022,11,30,21,31,1.10
2022,11,30,21,32,1.10
2022,11,30,21,33,1.00
2022,11,30,21,34,1.00
2022,11,30,21,35,1.00
2022,11,30,21,36,1.10
2022,11,30,21,37,1.10
2022,11,30,21,38,1.10
2022,11,30,21,39,1.10
2022,11,30,21,40,1.10
2022,11,30,21,41,1.10
2022,11,30,21,42,1.10
2022,11,30,21,43,1.10
2022,11,30,21,44,1.10
2022,11,30,21,45,1.10
2022,11,30,21,46,1.10
2022,11,30,21,47,1.10
2022,11,30,21,48,1.10
2022,11,30,21,49,1.20
2022,11,30,21,50,1.20
2022,11,30,21,51,1.20
2022,11,30,21,52,1.20
2022,11,30,21,53,1.20
2022,11,30,21,54,1.20
2022,11,30,21,55,1.20
2022,11,30,21,56,1.20
2022,11,30,21,57,1.30
2022,11,30,21,58,1.30
2022,11,30,21,59,1.30
2022,11,30,22,00,1.30
2022,11,30,22,01,1.30
2022,11,30,22,02,1.30
2022,11,30,22,03,1.30
2022,11,30,22,04,1.20
2022,11,30,22,05,1.20
2022,11,30,22,06,1.20
2022,11,30,22,07,1.20
2022,11,30,22,08,1.20
2022,11,30,22,09,1.20
2022,11,30,22,10,1.20
2022,11,30,22,11,1.20
2022,11,30,22,12,1.20
2022,11,30,22,13,1.20
2022,11,30,22,14,1.20
2022,11,30,22,15,1.20
2022,11,30,22,16,1.20
2022,11,30,22,17,1.20
2022,11,30,22,18,1.20
2022,11,30,22,19,1.20
2022,11,30,22,20,1.20
2022,11,30,22,21,1.10
2022,11,30,22,22,1.10
2022,11,30,22,23,1.20
2022,11,30,22,24,1.10
2022,11,30,22,25,1.10
2022,11,30,22,26,1.10
2022,11,30,22,27,1.10
2022,11,30,22,28,1.10
2022,11,30,22,29,1.00
2022,11,30,22,30,1.00
2022,11,30,22,31,1.00
2022,11,30,22,32,1.00
2022,11,30,22,33,1.00
2022,11,30,22,34,1.00
2022,11,30,22,35,1.00
2022,11,30,22,36,1.00
2022,11,30,22,37,1.00
2022,11,30,22,38,1.10
2022,11,30,22,39,1.10
2022,11,30,22,40,1.10
2022,11,30,22,41,1.10
2022,11,30,22,42,1.10
2022,11,30,22,43,1.10
2022,11,30,22,44,1.10
2022,11,30,22,45,1.10
2022,11,30,22,46,1.10
2022,11,30,22,47,1.10
2022,11,30,22,48,1.10
2022,11,30,22,49,1.10
2022,11,30,22,50,1.10
2022,11,30,22,51,1.20
2022,11,30,22,52,1.20
2022,11,30,22,53,1.20
2022,11,30,22,54,1.20
2022,11,30,22,55,1.20
2022,11,30,22,56,1.20
2022,11,30,22,57,1.20
2022,11,30,22,58,1.20
2022,11,30,22,59,1.20
2022,11,30,23,00,1.30
2022,11,30,23,01,1.30
2022,11,30,23,02,1.30
2022,11,30,23,03,1.30
2022,11,30,23,04,1.30
2022,11,30,23,05,1.30
2022,11,30,23,06,1.30
2022,11,30,23,07,1.30
2022,11,30,23,08,1.30
2022,11,30,23,09,1.30
2022,11,30,23,10,1.30
2022,11,30,23,11,1.40
2022,11,30,23,12,1.40
2022,11,30,23,13,1.40
2022,11,30,23,14,1.40
2022,11,30,23,15,1.50
2022,11,30,23,16,1.50
2022,11,30,23,17,1.50
2022,11,30,23,18,1.60
2022,11,30,23,19,1.60
2022,11,30,23,20,1.60
2022,11,30,23,21,1.60
2022,11,30,23,22,1.60
2022,11,30,23,23,1.70
2022,11,30,23,24,1.70
2022,11,30,23,25,1.70
2022,11,30,23,26,1.70
2022,11,30,23,27,1.80
2022,11,30,23,28,1.80
2022,11,30,23,29,1.80
2022,11,30,23,30,1.80
2022,11,30,23,31,1.80
2022,11,30,23,32,1.80
2022,11,30,23,33,1.80
2022,11,30,23,34,1.80
2022,11,30,23,35,1.90
2022,11,30,23,36,1.90
2022,11,30,23,37,1.90
2022,11,30,23,38,1.90
2022,11,30,23,39,1.90
2022,11,30,23,40,1.90
2022,11,30,23,41,2.00
2022,11,30,23,42,2.00
2022,11,30,23,43,2.00
2022,11,30,23,44,2.00
2022,11,30,23,45,2.00
2022,11,30,23,46,2.10
2022,11,30,23,47,2.10
2022,11,30,23,48,2.10
2022,11,30,23,49,2.10
2022,11,30,23,50,2.10
2022,11,30,23,51,2.10
2022,11,30,23,52,2.10
2022,11,30,23,53,2.10
2022,11,30,23,54,2.10
2022,11,30,23,55,2.10
2022,11,30,23,56,2.10
2022,11,30,23,57,2.10
2022,11,30,23,58,2.00
2022,11,30,23,59,2.00
